Weather in Onitsha

Nigeria     6°07′28″N   6°48′14″E
temp.,
°C
wind,
m/s
gust,
m/s
humid.,
%
clouds,
%
prec.,
mm/h
press.,
hPa
HPBL,
m
6 august, fri
fri601:00+23w169899 0.1 1016249
04:00+22wnw1497100 0.1 1015175
07:00+22sw1297100 1.5 101696
10:00+25wsw238898 1.5 1018277
13:00+26sw2481100 4.3 1016633
16:00+27wsw3479100 2.8 1014808
19:00+24wsw2693100 4.1 1015216
22:00+23ssw159533 0.0 1016187
7 august, sat
sat701:00+22sw149786 0.0 1016139
04:00+22sw1397100 0.0 1015113
07:00+22sw1196100 0.0 101642
10:00+25sw2384100 0.1 1017576
13:00+27sw247483 1.2 1014924
16:00+28wsw357386 0.6 1012875
19:00+24ssw259195 2.1 1013137
22:00+23wsw2993100 0.0 1016402
8 august, sun
sun801:00+22sw289696 0.0 1015347
04:00+22sw1397100 0.0 1014133
07:00+23sw1796100 0.0 1015311
10:00+26wsw358092 1.0 1017889
13:00+26wsw3680100 3.5 1016768
16:00+25wsw378894 1.7 1014627
19:00+23wsw2895100 3.4 1016353
22:00+22wsw1397100 0.6 1017139
9 august, mon
mon901:00+22wsw1196100 0.8 101648
04:00+22sw129896 0.0 101546
07:00+22ssw139799 0.0 1017117
10:00+26sw237999 0.1 1018790
13:00+29sw236190 0.4 10161456
16:00+29wsw346723 0.7 10141089
19:00+24sw23899 1.6 101565
22:00+23wsw279469 0.2 1017221
10 august, tue
tue1001:00+22sw129744 0.2 101676
04:00+21sw269949 0.0 1015233
07:00+22sw149798 0.0 1016166
10:00+26wsw347596 0.1 1017910
13:00+30wsw345848 0.6 10151495
16:00+28wsw466772 0.2 1012608
19:00+25wsw2779100 0.4 1013271
22:00+23sw2885100 0.1 1015339